Minot, ND

4:19 PM CST on January 20, 2017 (GMT -0600)
Minot International

Weather History for KMOT - April, 2013

Change the Weather History Date:

Wednesday, April 24, 2013

  Actual Average Record
Temperature  
Mean Temperature 27 °F 47 °F  
Max Temperature 32 °F 59 °F 88 °F (2012)
Min Temperature 22 °F 35 °F 11 °F (1931)
Degree Days  
Heating Degree Days 38 18  
Month to date heating degree days 951 554  
Since 1 July heating degree days 9261 8269  
Cooling Degree Days 0 0  
Month to date cooling degree days 0 0  
Year to date cooling degree days 0 0  
Moisture  
Dew Point 24 °F    
Average Humidity 77    
Maximum Humidity 85    
Minimum Humidity 69    
Precipitation  
Precipitation T in 0.05 in 2.14 in (1950)
Month to date precipitation 0.47 0.82  
Year to date precipitation 1.62 2.57  
Sea Level Pressure  
Sea Level Pressure 30.00 in    
Wind  
Wind Speed 18 mph (West)    
Max Wind Speed 36 mph    
Max Gust Speed 41 mph    
Visibility 8 miles    
Events Fog , Snow    
T = Trace of Precipitation, MM = Missing Value Source: NWS Daily Summary

Daily Weather History Graph

Daily Weather History Graph

Search for Another Location

Airport or City:

Trip Planner

Search our weather history database for the weather conditions in past years. The results will help you decide how hot, cold, wet, or windy it might be!

Date:

Astronomy

Apr. 24, 2013 Rise Set
Actual Time 6:37 AM CDT 8:49 PM CDT
Civil Twilight 6:03 AM CDT 9:23 PM CDT
Nautical Twilight 5:21 AM CDT 10:06 PM CDT
Astronomical Twilight 4:34 AM CDT 10:54 PM CDT
Moon 7:52 PM CDT (4/24) 5:48 AM CDT (4/24)
Length of Visible Light 15h 19m
Length of Day
14h 11m
Waxing Gibbous, 98% of the Moon is Illuminated
Apr 24
Waxing Gibbous
Apr 25
Full
May 2
Last Quarter
May 9
New
May 17
First Quarter

Hourly Weather History & Observations

Time (CDT) Temp. Windchill Dew Point Humidity Pressure Visibility Wind Dir Wind Speed Gust Speed Precip Events Conditions
12:54 AM 28.9 °F 22.8 °F 24.1 °F 82% 30.02 in 10.0 mi SW 5.8 mph - N/A   Clear
1:54 AM 30.0 °F 21.7 °F 26.1 °F 85% 29.99 in 10.0 mi SSW 9.2 mph - N/A   Clear
2:54 AM 30.0 °F 21.1 °F 27.0 °F 88% 29.97 in 10.0 mi SW 10.4 mph - N/A   Mostly Cloudy
3:54 AM 32.0 °F 22.1 °F 27.0 °F 82% 29.95 in 10.0 mi WSW 13.8 mph - N/A   Scattered Clouds
4:54 AM 30.9 °F 21.2 °F 26.1 °F 82% 29.95 in 10.0 mi WSW 12.7 mph - N/A   Mostly Cloudy
5:54 AM 30.0 °F 19.1 °F 24.1 °F 79% 29.94 in 10.0 mi West 15.0 mph - N/A   Clear
6:54 AM 30.0 °F 18.7 °F 23.0 °F 75% 29.94 in 10.0 mi West 16.1 mph - N/A   Partly Cloudy
7:54 AM 30.0 °F 18.7 °F 23.0 °F 75% 29.94 in 10.0 mi West 16.1 mph - N/A   Partly Cloudy
8:54 AM 30.9 °F 19.4 °F 25.0 °F 79% 29.95 in 10.0 mi West 17.3 mph - N/A   Scattered Clouds
9:47 AM 30.2 °F 18.1 °F 26.6 °F 86% 29.89 in 1.8 mi West 18.4 mph - 0.00 in Snow Light Snow
9:54 AM 30.9 °F 18.7 °F 28.0 °F 89% 29.96 in 1.2 mi WNW 19.6 mph - 0.00 in Snow Light Snow
10:01 AM 32.0 °F 20.5 °F 28.4 °F 87% 29.89 in 0.8 mi West 18.4 mph 26.5 mph 0.00 in Snow Light Snow
10:17 AM 30.2 °F 16.2 °F 28.4 °F 93% 29.90 in 0.5 mi WNW 25.3 mph 34.5 mph 0.00 in Fog , Snow Snow
10:23 AM 30.2 °F 15.7 °F 28.4 °F 93% 29.90 in 1.0 mi WNW 27.6 mph 32.2 mph 0.00 in Snow Light Snow
10:30 AM 32.0 °F 18.1 °F 28.4 °F 87% 29.90 in 3.0 mi WNW 27.6 mph 34.5 mph 0.00 in Snow Light Snow
10:38 AM 32.0 °F 17.9 °F 28.4 °F 87% 29.90 in 9.0 mi WNW 28.8 mph 36.8 mph 0.00 in   Overcast
10:54 AM 32.0 °F 18.1 °F 27.0 °F 82% 29.98 in 10.0 mi WNW 27.6 mph 34.5 mph 0.00 in   Overcast
11:05 AM 32.0 °F 18.1 °F 26.6 °F 80% 29.92 in 10.0 mi WNW 27.6 mph 36.8 mph N/A   Overcast
11:54 AM 30.9 °F 15.9 °F 24.1 °F 76% 30.02 in 10.0 mi WNW 31.1 mph 36.8 mph N/A   Partly Cloudy
12:54 PM 30.0 °F 14.9 °F 21.0 °F 69% 30.04 in 10.0 mi WNW 29.9 mph 40.3 mph N/A   Clear
1:54 PM 30.0 °F 14.9 °F 21.9 °F 72% 30.06 in 10.0 mi WNW 29.9 mph 38.0 mph N/A   Mostly Cloudy
2:54 PM 30.0 °F 15.2 °F 21.9 °F 72% 30.07 in 10.0 mi WNW 28.8 mph 36.8 mph N/A   Overcast
3:54 PM 30.0 °F 16.0 °F 21.9 °F 72% 30.08 in 10.0 mi WNW 25.3 mph 39.1 mph 0.00 in   Overcast
4:54 PM 30.9 °F 17.2 °F 21.9 °F 69% 30.10 in 10.0 mi WNW 25.3 mph 33.4 mph N/A   Mostly Cloudy
5:54 PM 30.9 °F 18.4 °F 21.0 °F 67% 30.10 in 10.0 mi WNW 20.7 mph - N/A   Mostly Cloudy
6:54 PM 30.9 °F 18.4 °F 21.0 °F 67% 30.11 in 10.0 mi WNW 20.7 mph - N/A   Mostly Cloudy
7:54 PM 28.9 °F 18.2 °F 19.9 °F 69% 30.11 in 10.0 mi WNW 13.8 mph - N/A   Clear
8:54 PM 27.0 °F 17.3 °F 19.0 °F 72% 30.10 in 10.0 mi WNW 10.4 mph - N/A   Clear
9:54 PM 27.0 °F 18.7 °F 19.0 °F 72% 30.12 in 10.0 mi West 8.1 mph - N/A   Clear
10:54 PM 26.1 °F 20.5 °F 19.0 °F 75% 30.11 in 10.0 mi SW 4.6 mph - N/A   Clear
11:54 PM 24.1 °F 15.2 °F 18.0 °F 77% 30.10 in 10.0 mi SW 8.1 mph - N/A   Clear